Powrót do katalogu

STARLINK-36099

AktywnyŁącznośćVLEO
NORAD 66797·PAYLOAD·🇺🇸 United States

Wystrzelony Dec 1, 2025 z Cape Canaveral Space Force Station

Loading…

Następne Przeloty (najbliższe 24 godziny)

TLE

ŚwieżeSource: CelesTrak SupGP

Epoka: Sep 14, 2026, 20:51 UTC

1 66797C 25278G   26257.86923611 -.00026682  00000+0 -96659-3 0  2577
2 66797  43.0015 125.9929 0001211 262.8927  23.1527 15.27585808    18

Śledź STARLINK-36099 w czasie rzeczywistym z AllMySat

Download on the App Store